Location: ??????
(55.7522°N, 37.6156°E)
Time: 18:25:59
(UTC+00:00)

Cosmos 1833 Rocket - Pass Details

Date: 14 June 2025
Orbit: 832 x 837 km, 71.0° (Epoch: 13 July)

Event Time Altitude Azimuth Distance (km) Brightness Sun altitude
Rises 21:47:51 0° 325° (NW) 3,398 6.7 -10.8°
Reaches altitude 10° 21:50:18 10° 326° (NW) 2,460 5.9 -10.8°
Maximum altitude 21:55:58 88° 57° (ENE) 843 2.7 -10.7°
Drops below altitude 10° 22:01:35 10° 147° (SSE) 2,441 4.7 -10.7°
Enters shadow 22:02:39 - 147° (SSE) 2,846 5.0 -10.6°
